Location: Unspecified
(41.9031°N, 12.4386°E)
Time: 06:00:41
(UTC+02:00)

ISS - Pass Details

Date: 31 March 2020
Orbit: 417 x 423 km, 51.6° (Epoch: 29 March)

Event Time Altitude Azimuth Distance (km) Brightness Sun altitude
Rises 20:09:05 0° 306° (NW) 2,361 1.5 -7.1°
Reaches altitude 10° 20:11:39 10° 326° (NW) 1,497 -0.2 -7.5°
Maximum altitude 20:14:03 18° 12° (NNE) 1,104 -1.6 -8.0°
Drops below altitude 10° 20:16:27 10° 57° (ENE) 1,496 -1.4 -8.4°
Enters shadow 20:17:16 - 66° (ENE) 1,743 -1.1 -8.5°
